User: anonymous   Login
Location: Livonia
(42.3680°N, 83.3530°W)
Time: 07:07:29
(UTC-04:00)
Language:

MOZ.5/SAFIR/RUBIN 5/SL-8 - Orbit

View from above orbital plane
View from above orbital plane
View from above satellite
View from above satellite

Ground track
Ground track

The orbit data is extracted from the following two-line orbital elements,

1 28898U 05043G   18144.91458909 +.00000092 +00000-0 +28330-4 0  9991
2 28898 097.9747 285.7779 0019560 190.9750 169.1027 14.60274659293078
Epoch (UTC): 24 May 2018 21:57:00
Eccentricity: 0.0019560
inclination: 97.9747°
perigee height: 678 km
apogee height: 706 km
right ascension of ascending node: 285.7779°
argument of perigee: 190.9750°
revolutions per day: 14.60274659
mean anomaly at epoch: 169.1027°
orbit number at epoch: 29307

The dashed part of the orbit path shows where the satellite is in the earth's shadow,  

DLR